Retour au catalogue

ATLAS 5 CENTAUR DEB

LostHEO
NORAD 55851·DEBRIS·🇺🇸 United States

Lancé Oct 17, 2018 depuis Cape Canaveral Space Force Station

Loading…

Prochains Passages (prochaines 24 heures)

TLE

PériméSource: Space-Track

Époque: Jul 4, 2024, 02:32 UTC

1 55851U 18079HD  24186.10602101 -.00000098  00000-0  00000+0 0  9998
2 55851  11.4280 115.1728 4525142 156.9762 232.0885  1.76798504 12420

Suivez ATLAS 5 CENTAUR DEB en temps réel avec AllMySat

Download on the App Store